Regional Weather Roundup
Issued by NWS Pendleton, OR

Home | Current Version | Previous Version | Text Only | Print | Product List | Glossary On
Versions: 1 2 3 4 5 6 7 8 9 10 11 12 13 14 15 16 17 18 19 20 21 22 23 24 25 26 27 28 29 30 31 32 33 34 35 36 37 38 39 40 41 42 43 44 45 46 47 48 49 50
000
ASUS46 KPDT 200004
RWRPDT
PENDLETON REGIONAL WEATHER ROUNDUP
NATIONAL WEATHER SERVICE PENDLETON OREGON
400 PM PST THU JAN 19 2017

NOTE: FAIR INDICATES FEW OR NO CLOUDS BELOW 12,000 FEET WITH NO
SIGNIFICANT WEATHER AND/OR OBSTRUCTIONS TO VISIBILITY.

# INDICATES UNOFFICIAL STATION AND DATA

WAZ520-200110-
EAST SLOPES OF WASHINGTON CASCADES

CITY            SKY/WX      TMP DP  RH  WIND    PRES   REMARKS
#CLE ELUM HS    N/A         36  31  82  CALM    29.50
#CLE ELUM LAKE  N/A         31  30  96  CALM    29.58
#GLENWOOD       N/A         40  37  89  S1      29.59
#NELSON 3SW     N/A         31  30  96  CALM    29.80
#NILE           N/A         34  32  92  CALM    28.83
#RONALD 2NW     N/A         29  N/A N/A CALM    29.39
#TEANAWAY 4NE   N/A         33  32  96  E2      N/A
#TROUT LAKE 1NE N/A         36  35  96  CALM    29.61
#TROUT LAKE 1E  N/A         37  35  92  CALM    29.58
$$

WAZ521-200110-
SIMCOE HIGHLANDS

CITY            SKY/WX      TMP DP  RH  WIND    PRES   REMARKS
#BICKLETON HS   N/A         36  33  89  SW8     29.21
#CENTERVILLE 1SWN/A         33  30  89  CALM    29.59
#GOLDENDALE 1NE N/A         41  27  57  CALM    N/A
#GOLDENDALE 4W  N/A         39  18  42  E2      29.60
#GOODNOE HILLS  N/A         42  32  67  NW2     N/A
#LYLE 6NE       N/A         42  38  86  CALM    29.57
#PITT 4SE       N/A         39  35  85  CALM    29.62
$$

WAZ026-200110-
KITTITAS VALLEY

CITY            SKY/WX      TMP DP  RH  WIND    PRES   REMARKS
ELLENSBURG AP   CLOUDY      34  31  89  CALM    29.54  FOG
6HR MIN TEMP:   34; 6HR MAX TEMP:   36;

#ELLENSBURG CWU N/A         33  31  92  CALM    29.55
#ELLENSBURG 3NE N/A         33  32  96  CALM    27.64
#ELLENSBURG 1E  N/A         33  N/A N/A CALM    N/A
#KITTITAS 4N    N/A         34  30  85  CALM    29.59
#KITTITAS 3S    N/A         33  31  92  CALM    29.59
#THORP 6N       N/A         31  30  96  SE2     29.62
$$

WAZ027-200110-
YAKIMA VALLEY

CITY            SKY/WX      TMP DP  RH  WIND    PRES   REMARKS
SUNNYSIDE AP    PTCLDY      31  28  88  CALM    29.58  FOG
YAKIMA AIRPORT  CLOUDY      36  33  89  CALM    29.57  FOG
6HR MIN TEMP:   34; 6HR MAX TEMP:   36;

YAKIMA-VAGABOND FOG         31  30  96  CALM    29.54  VSB 0
6HR MIN TEMP:   31; 6HR MAX TEMP:   32;

#DONALD 2NE     N/A         32  22  66  N2      28.42F
#MABTON         N/A         29  28  96  CALM    29.57
#NACHES 2SW     N/A         37  34  89  CALM    29.53
#TERRACE HTS    N/A         33  32  96  CALM    29.59
#TOPPENISH      N/A         28  27  96  CALM    29.54
#WEST VALLEY    N/A         33  31  92  CALM    29.59
#W YAKIMA       N/A         32  31  96  CALM    29.61
#WHITE SWAN 5E  N/A         29  28  96  CALM    29.62
#WILEY CITY 3W  N/A         33  29  85  CALM    29.52
$$

WAZ028-200110-
LOWER COLUMBIA BASIN...WASHINGTON

CITY            SKY/WX      TMP DP  RH  WIND    PRES   REMARKS
PASCO           PTCLDY      39  35  85  SE3     29.60
6HR MIN TEMP:   31; 6HR MAX TEMP:   41;

PROSSER AWOS    N/A         36  34  92  N6      29.61
RICHLAND AWOS   PTCLDY      37  34  89  N3      29.60  FOG
#BENTON CITY    N/A         39  33  79  CALM    29.52
#CONNELL 5N     N/A         40  34  79  S2      29.60
#CONNELL 5NW    N/A         38  34  85  SE1     29.57
#ELTOPIA 6NW    N/A         39  36  89  CALM    28.55
#KAHLOTUS       N/A         43  35  73  W2      29.60
#KENNEWICK 3S   N/A         43  35  73  S5      29.61
#PATERSON       N/A         36  33  89  CALM    29.61
#SAGEMOOR 2W    N/A         41  34  76  CALM    29.46
#TOUCHET 2S     N/A         38  33  82  SE1     29.60
#WEST PASCO     N/A         42  37  82  CALM    29.53
$$

WAZ029-200110-
FOOTHILLS OF THE BLUES...WASHINGTON

CITY            SKY/WX      TMP DP  RH  WIND    PRES   REMARKS
WALLA WALLA AP  PTCLDY      42  34  73  NE5     29.58
6HR MIN TEMP:   39; 6HR MAX TEMP:   51;

#CLYDE 6NW      N/A         43  34  70  CALM    29.60
#DAYTON SCHOOL  N/A         46  31  56  CALM    29.62
#LOWDEN 2SE     N/A         40  34  79  CALM    29.57
#PLEASANT VIEW 1N/A         40  34  79  S5      29.66
#PRESCOTT       N/A         41  36  82  CALM    29.61
#WHITMAN COLLEGEN/A         47  37  68  CALM    29.64
#WAITSBURG 5S   N/A         47  37  68  CALM    29.69
#WAITSBURG 8N   N/A         39  N/A N/A N2      29.44
#WALLA WALLA 5E N/A         46  38  73  NE5     N/A
#WHITMAN MISSIONN/A         46  39  76  W1      29.62
$$

WAZ030-200110-
BLUE MOUNTAINS...WASHINGTON

CITY            SKY/WX      TMP DP  RH  WIND    PRES   REMARKS
#DIXIE 5SE      N/A         42  33  70  S7      29.49
#SKI BLUEWOOD   N/A         33  30  89  S1      29.54
$$

ORZ009-041-WAZ024-200110-
COLUMBIA RIVER GORGE

CITY            SKY/WX      TMP DP  RH  WIND    PRES   REMARKS
HOOD RIVER AP   LGT DRIZZLE 37  36  96  CALM    29.59
THE DALLES AP   PTCLDY      35  32  89  CALM    29.61  FOG
6HR MIN TEMP:   29; 6HR MAX TEMP:   38;

#ARLINGTON AIRPON/A         34  32  92  CALM    29.63
#ARLINGTON HS   N/A         36  31  82  CALM    29.52
#CELILO DOT     N/A         36  30  79  S6      N/A
#LYLE           N/A         37  34  89  E2      29.63
#MOSIER 1S      N/A         37  32  82  CALM    29.56
#MURDOCK        N/A         39  33  79  CALM    29.58
#RUFUS DOT      N/A         36  31  82  CALM    N/A
#SMITHVILLE     N/A         37  34  89  N2      29.57

$$

ORZ510-200110-
NORTH CENTRAL OREGON

CITY            SKY/WX      TMP DP  RH  WIND    PRES   REMARKS
#ANTELOPE       N/A         42  31  65  CALM    29.47
#CHENOWITH 1W   N/A         40  37  89  NW6     N/A
#COW CYN RST AREN/A         43  N/A N/A SW8     N/A
#DUFUR 9E       N/A         42  34  73  W1      29.63
#GRASS VALLEY 1SN/A         41  34  76  S6      29.52
#KENT DOT       N/A         39  25  57  N7      N/A
#MAUPIN SCHOOL  N/A         43  34  70  N1      29.62
#SHANIKO 5WSW   N/A         39  24  54  N14     N/A    WCI 31
#SHANIKO 4NW    N/A         38  29  70  S8      29.53
#TYGH VALLEY 2NEN/A         45  35  68  CALM    29.58
#WAPANITIA AIRPON/A         46  33  60  W1      29.59
#WASCO DOT      N/A         39  30  70  CALM    N/A
#WASCO AIRPORT  N/A         40  31  70  S2      N/A
#WASCO 5NE      N/A         37  33  85  CALM    29.61
$$

ORZ511-200110-
CENTRAL OREGON

CITY            SKY/WX      TMP DP  RH  WIND    PRES   REMARKS
BEND AIRPORT    MOCLEAR     41  30  65  SW6     29.56
MADRAS AIRPORT  PTCLDY      43  30  60  SW5     29.58
PRINEVILLE AP   PTCLDY      41  28  59  S12     29.56S WCI 34
REDMOND AIRPORT MOCLEAR     43  26  51  S10     29.55
6HR MIN TEMP:   38; 6HR MAX TEMP:   43;

#ASHWOOD SCHOOL N/A         47  31  53  S1      29.54
#BEND 1SW       N/A         38  32  79  W1      N/A
#BEND-AWBREY    N/A         40  32  73  S2      29.62
#BEND-KIM LN    N/A         43  30  60  N2      29.54
#CULVER         N/A         45  32  60  CALM    29.52
#CULVER 8W      N/A         44  24  45  W1      29.62
#LAKE BILLY CHINN/A         42  N/A N/A W5      29.67
#MADRAS 4S      N/A         45   5  19  CALM    29.67
#POWELL BUTTE   N/A         44  26  49  SW5     29.57
#PRINEVILLE 3N  N/A         41  32  70  S5      29.59
#WARM SPRINGS   N/A         49  31  50  CALM    29.54

$$


ORZ509-200110-
EAST SLOPES OF OREGON CASCADES

CITY            SKY/WX      TMP DP  RH  WIND    PRES   REMARKS
SISTERS AWOS    N/A         43  28  55  CALM    29.56
#BLUE BOX PASS  N/A         34  N/A N/A CALM    N/A
#CAMP SHERMAN   N/A         38  30  73  CALM    29.66
#LA PINE 4NW    N/A         39  29  67  SW5     29.65
#LAVA BUTTE DOT N/A         36  24  61  S1      N/A
#SISTERS ODOT   N/A         43  N/A N/A N2      N/A
#SISTERS 3N     N/A         38  24  57  CALM    29.61
#SUNRIVER       N/A         39  30  70  S1      29.63
#SUTTLE LK DOT  N/A         31  30  96  SW28G43 N/A    WCI 17
#TUMALO 3W      N/A         42  27  55  SW7     29.47
#WANOGA BUTTE D N/A         29  27  92  CALM    N/A

$$

ORZ044-200110-
LOWER COLUMBIA BASIN...OREGON

CITY            SKY/WX      TMP DP  RH  WIND    PRES   REMARKS
HERMISTON       PTCLDY      38  33  82  CALM    29.59  HAZE
6HR MIN TEMP:   34; 6HR MAX TEMP:   42;

#BOARDMAN SCHOOLN/A         33  31  92  NW1     29.61
#ECHO 8SW       N/A         38  35  89  SW1     29.61
#I-84 EX 198 DOTN/A         47  33  58  CALM    N/A
#UMATILLA       N/A         40  32  73  CALM    29.55
$$

ORZ507-200110-
NORTHERN FOOTHILLS OF THE BLUES

CITY            SKY/WX      TMP DP  RH  WIND    PRES   REMARKS
PENDLETON AIRPT RAIN        40  34  79  N5      29.57
6HR MIN TEMP:   39; 6HR MAX TEMP:   45; 6HR PCP:  TRACE;

#ADAMS 3WNW     N/A         44  38  79  E2      29.59
#ATHENA         N/A         44  36  73  SE1     29.62
#CAYUSE         N/A         47  37  68  E6      29.59
#HELIX SCHOOL   N/A         40  35  82  CALM    29.61
#HELIX 3N       N/A         41  36  82  N2      29.57
#HOLDMAN 6E     N/A         42  36  79  CALM    29.42
#M-F GROVE ELEM N/A         49  36  61  CALM    29.58
#PENDLETON DNTN N/A         44  29  55  CALM    29.59
#PDT AQUATIC CTRN/A         41  31  67  N5      29.60
#PDT SUNRIDGE   N/A         43  35  73  CALM    29.59
#PENDLETON 7NW  N/A         41  34  76  E1      32.00
#PILOT ROCK 1S  N/A         49  30  48  S6      29.59
#PILOT ROCK     N/A         47  34  60  SW7     29.59
#TUTUILLA       N/A         47  38  71  CALM    29.59
#WESTON SCHOOL  N/A         44  33  65  S6      29.48

$$

ORZ508-200110-
SOUTHERN FOOTHILLS OF THE BLUES

CITY            SKY/WX      TMP DP  RH  WIND    PRES   REMARKS
#AJAX           N/A         45  26  47  S3      27.35
#CONDON SCHOOL  N/A         43  32  65  SW5     29.53
#CONDON 5W      N/A         40  28  62  S3      29.51
#FOSSIL SCHOOL  N/A         46  30  53  SW5     29.52
#HEPPNER EOC    N/A         48  33  56  SE1     29.50
#HEPPNER 4NE    N/A         44  33  65  CALM    29.57
#LEXINGTON 2SE  N/A         49  35  58  CALM    29.54
#MIKKALO        N/A         40  29  64  SE2     29.68
#OLEX 4N        N/A         40  35  82  CALM    29.57
#RUGGS 5NE      N/A         47  30  51  S2      29.72
#RUGGS 2SW      N/A         44  32  62  SW9     29.59

$$

ORZ502-503-200110-
BLUE MOUNTAINS

CITY            SKY/WX      TMP DP  RH  WIND    PRES   REMARKS
MEACHAM         CLOUDY      36  31  82  CALM    29.57
6HR MIN TEMP:   35; 6HR MAX TEMP:   39; 6HR PCP:  0.01;

#BATTLE MTN DOT N/A         37  26  64  S6      N/A
#GREENHORN 9SW  N/A         34  33  96  CALM    25.83
#HEPPNER 15SE   N/A         37  30  75  CALM    25.13
#LADD CYN SMT   N/A         30  29  96  SE13    N/A    WCI 20
#LADD CREEK ODOTN/A         33  28  82  CALM    N/A
#LONG CREEK HS  N/A         39  33  79  SW3     N/A
#N POWDER DOT   N/A         N/A N/A N/A CALM    N/A
#PIKES PEAK     N/A         42  29  60  CALM    27.99
#TOLLGATE       N/A         30  29  96  SW1     29.49
#TROY SCHOOL    N/A         40  36  85  CALM    29.54
#UKIAH          N/A         40  31  70  CALM    29.55
#WESTON 4E      N/A         37  33  85  E7      29.60
$$

ORZ505-200110-
JOHN DAY BASIN

CITY            SKY/WX      TMP DP  RH  WIND    PRES   REMARKS
JOHN DAY        LGT SNOW    37  32  82  S5      29.61
#ANTELOPE 9ESE  N/A         47  33  58  SW1     N/A
#DAYVILLE SCHOOLN/A         44  28  53  S6      29.59
#MITCHELL       N/A         43  33  67  CALM    29.75
#MITCHELL 8NW   N/A         42  28  57  SW2     29.41
#MONUMENT HS    N/A         40  30  67  CALM    29.59
#MT. VERNON 5SE N/A         38  30  73  E2      29.55
#SPRAY SCHOOL   N/A         42  N/A N/A CALM    N/A
$$

ORZ506-200110-
OCHOCO AND JOHN DAY HIGHLANDS

CITY            SKY/WX      TMP DP  RH  WIND    PRES   REMARKS
#HORSE RIDGE DO N/A         38  28  67  SE10    N/A
#KEYES SMT DOT  N/A         37  27  67  S6      N/A
#PAULINA SCHOOL N/A         39  28  64  S6      N/A
#PINE MTN OBS   N/A         27  26  96  CALM    N/A
#PRAIRIE CITY   N/A         38  31  76  CALM    29.77
#SENECA         N/A         35  N/A N/A N6      N/A
#SENECA 9NW     N/A         33  31  92  CALM    29.65
$$

ORZ049-200110-
GRANDE RONDE VALLEY

CITY            SKY/WX      TMP DP  RH  WIND    PRES   REMARKS
LA GRANDE       PTCLDY      37  30  75  NW5     29.61
#COVE           N/A         37  34  89  CALM    29.68
#COVE 6NW       N/A         35  31  85  CALM    29.71
#ELGIN 3N       N/A         35  27  72  S5      29.63
#ELGIN 1E       N/A         37  32  82  CALM    N/A
#IMBLER SCHOOL  N/A         33  30  89  CALM    29.62
#ISLAND CITY 4N N/A         48  45  89  CALM    29.56
#LADD CYN DOT   N/A         35  30  82  S16     N/A    WCI 25
#UNION 1S       N/A         35  30  82  S10     29.70
$$

ORZ050-200110-
WALLOWA COUNTY

CITY            SKY/WX      TMP DP  RH  WIND    PRES   REMARKS
#IMNAHA SCHOOL  N/A         41  37  86  CALM    29.65
#IMNAHA 10S     N/A         36  34  92  CALM    29.64
#JOSEPH 3N      N/A         33  29  85  CALM    29.67
#JOSEPH 3W      N/A         32  29  89  CALM    29.49
#LOSTINE        N/A         31  28  88  CALM    29.52
#LOSTINE 3SE    N/A         28  26  92  NW3     29.65
#MT HOWARD 8000 N/A         22  20  92  N1      29.49
#PROMISE 1S     N/A         33  30  89  CALM    29.78
#WALLOWA SCHOOL N/A         32  29  89  CALM    29.63



$$



USA.gov is the U.S. government's official web portal to all federal, state and local government web resources and services.